Fox Island, WA

12:54 PM PDT on August 28, 2016 (GMT -0700)
Tacoma Narrows

Weather History for KTIW - October, 2011

Change the Weather History Date:

Saturday, October 22, 2011

  Actual Average Record
Temperature  
Mean Temperature 56 °F -  
Max Temperature 61 °F 54 °F 69 °F (1998)
Min Temperature 53 °F 43 °F 39 °F (2000)
Degree Days  
Heating Degree Days 8    
Growing Degree Days 6 (Base 50)    
Moisture  
Dew Point 55 °F    
Average Humidity 96    
Maximum Humidity 100    
Minimum Humidity 88    
Precipitation  
Precipitation 0.55 in - - ()
Sea Level Pressure  
Sea Level Pressure 30.16 in    
Wind  
Wind Speed 9 mph (South)    
Max Wind Speed 22 mph    
Max Gust Speed 32 mph    
Visibility 6 miles    
Events Fog , Rain    
Averages and records for this station are not official NWS values.
T = Trace of Precipitation, MM = Missing Value Source: NWS Daily Summary

Daily Weather History Graph

Daily Weather History Graph

Search for Another Location

Airport or City:

Trip Planner

Search our weather history database for the weather conditions in past years. The results will help you decide how hot, cold, wet, or windy it might be!

Date:

Astronomy

Oct. 22, 2011 Rise Set
Actual Time 7:38 AM PDT 6:10 PM PDT
Civil Twilight 7:07 AM PDT 6:41 PM PDT
Nautical Twilight 6:31 AM PDT 7:17 PM PDT
Astronomical Twilight 5:56 AM PDT 7:52 PM PDT
Moon 2:23 AM PDT (10/22) 3:46 PM PDT (10/22)
Length of Visible Light 11h 34m
Length of Day
10h 31m
Waning Crescent, 22% of the Moon is Illuminated
Oct 22
Waning Crescent
Oct 26
New
Nov 2
First Quarter
Nov 10
Full
Nov 18
Last Quarter

Hourly Weather History & Observations

Time (PDT) Temp. Dew Point Humidity Pressure Visibility Wind Dir Wind Speed Gust Speed Precip Events Conditions
12:53 AM 55.0 °F 54.0 °F 96% 30.22 in 7.0 mi SSW 10.4 mph 17.3 mph 0.00 in Rain Light Rain
1:10 AM 55.4 °F 53.6 °F 94% 30.22 in 10.0 mi South 11.5 mph - 0.00 in   Mostly Cloudy
1:20 AM 55.4 °F 53.6 °F 94% 30.22 in 10.0 mi South 6.9 mph - 0.00 in   Mostly Cloudy
1:53 AM 55.0 °F 54.0 °F 96% 30.22 in 10.0 mi South 9.2 mph - 0.00 in   Overcast
2:13 AM 55.4 °F 53.6 °F 94% 30.22 in 10.0 mi SSW 6.9 mph - N/A   Overcast
2:46 AM 55.4 °F 53.6 °F 94% 30.22 in 10.0 mi South 6.9 mph - N/A   Overcast
2:53 AM 55.0 °F 54.0 °F 96% 30.22 in 7.0 mi SSW 6.9 mph - 0.00 in Rain Light Rain
3:12 AM 55.4 °F 53.6 °F 94% 30.20 in 4.0 mi SSW 3.5 mph - 0.00 in Rain Light Rain
3:21 AM 55.4 °F 53.6 °F 94% 30.20 in 5.0 mi SSW 4.6 mph - 0.01 in Rain Light Rain
3:50 AM 55.4 °F 55.4 °F 100% 30.18 in 2.5 mi South 3.5 mph - 0.03 in Rain Light Rain
3:53 AM 55.0 °F 55.0 °F 100% 30.19 in 2.5 mi South 3.5 mph - 0.03 in Rain Rain
4:02 AM 55.4 °F 53.6 °F 94% 30.18 in 4.0 mi South 4.6 mph - N/A Rain Light Rain
4:12 AM 55.4 °F 53.6 °F 94% 30.17 in 3.0 mi SSE 3.5 mph - 0.02 in Rain Light Rain
4:18 AM 55.4 °F 53.6 °F 94% 30.17 in 1.8 mi SSE 3.5 mph - 0.03 in Rain Light Rain
4:29 AM 53.6 °F 53.6 °F 100% 30.17 in 0.5 mi South 3.5 mph - 0.03 in Fog , Rain Light Rain
4:50 AM 53.6 °F 53.6 °F 100% 30.16 in 2.0 mi South 4.6 mph - 0.05 in Rain Light Rain
4:53 AM 55.0 °F 54.0 °F 96% 30.17 in 3.0 mi South 6.9 mph - 0.05 in Rain Light Rain
5:10 AM 53.6 °F 53.6 °F 100% 30.15 in 1.5 mi SSE 4.6 mph - 0.02 in Rain Rain
5:20 AM 53.6 °F 53.6 °F 100% 30.14 in 0.5 mi SSE 3.5 mph - 0.03 in Fog , Rain Light Rain
5:27 AM 53.6 °F 53.6 °F 100% 30.14 in 0.2 mi SSE 5.8 mph - 0.03 in Fog , Rain Light Rain
5:34 AM 53.6 °F 53.6 °F 100% 30.13 in 1.0 mi Variable 4.6 mph - 0.03 in Rain Light Rain
5:38 AM 53.6 °F 53.6 °F 100% 30.13 in 3.0 mi SSE 5.8 mph - 0.04 in Rain Light Rain
5:53 AM 55.0 °F 54.0 °F 96% 30.13 in 8.0 mi South 6.9 mph - 0.05 in Rain Light Rain
6:00 AM 55.4 °F 53.6 °F 94% 30.13 in 8.0 mi South 6.9 mph - 0.00 in Rain Light Rain
6:25 AM 55.4 °F 53.6 °F 94% 30.12 in 6.0 mi South 10.4 mph - 0.06 in Rain Light Rain
6:53 AM 55.9 °F 55.0 °F 97% 30.11 in 6.0 mi South 11.5 mph - 0.11 in Rain Rain
7:53 AM 55.9 °F 55.0 °F 97% 30.10 in 10.0 mi South 17.3 mph 26.5 mph 0.06 in Rain Light Rain
8:17 AM 55.4 °F 55.4 °F 100% 30.10 in 10.0 mi SSW 17.3 mph 28.8 mph 0.01 in Rain Light Rain
8:29 AM 55.4 °F 55.4 °F 100% 30.10 in 10.0 mi SSW 21.9 mph 28.8 mph 0.01 in Rain Light Rain
8:36 AM 55.4 °F 55.4 °F 100% 30.10 in 10.0 mi South 21.9 mph 32.2 mph 0.01 in Rain Light Rain
8:53 AM 55.9 °F 55.0 °F 97% 30.11 in 10.0 mi SSW 15.0 mph 26.5 mph 0.01 in   Overcast
9:53 AM 57.0 °F 55.9 °F 96% 30.14 in 10.0 mi South 15.0 mph 24.2 mph 0.00 in   Overcast
10:29 AM 57.2 °F 55.4 °F 94% 30.15 in 3.0 mi South 16.1 mph 21.9 mph 0.00 in Rain Light Rain
10:53 AM 57.0 °F 55.9 °F 96% 30.16 in 3.0 mi South 15.0 mph 23.0 mph 0.00 in Rain Light Rain
11:53 AM 57.9 °F 57.0 °F 97% 30.18 in 2.0 mi South 13.8 mph - 0.00 in Rain Light Rain
12:53 PM 59.0 °F 57.9 °F 96% 30.18 in 2.0 mi South 12.7 mph 19.6 mph 0.01 in   Overcast
1:53 PM 59.0 °F 57.9 °F 96% 30.17 in 2.0 mi South 16.1 mph 23.0 mph 0.01 in Rain Light Rain
2:53 PM 60.1 °F 59.0 °F 96% 30.17 in 2.0 mi SSW 12.7 mph 19.6 mph 0.00 in   Overcast
3:53 PM 60.1 °F 59.0 °F 96% 30.16 in 10.0 mi SSW 6.9 mph - 0.01 in   Overcast
4:13 PM 60.8 °F 57.2 °F 88% 30.15 in 10.0 mi SSW 10.4 mph - N/A   Overcast
4:25 PM 60.8 °F 57.2 °F 88% 30.15 in 2.0 mi SSW 6.9 mph - 0.02 in Rain Light Rain
4:53 PM 57.9 °F 57.9 °F 100% 30.15 in 1.2 mi SW 5.8 mph - 0.13 in Rain Heavy Rain
5:53 PM 59.0 °F 57.9 °F 96% 30.14 in 2.0 mi SSW 9.2 mph - 0.06 in Rain Light Rain
6:53 PM 57.9 °F 57.0 °F 97% 30.14 in 4.0 mi SSW 9.2 mph - 0.01 in   Overcast
7:53 PM 57.9 °F 55.0 °F 90% 30.14 in 10.0 mi SW 10.4 mph - 0.00 in   Overcast
8:00 PM 57.2 °F 55.4 °F 94% 30.14 in 10.0 mi SSW 10.4 mph - N/A   Overcast
8:53 PM 55.9 °F 54.0 °F 93% 30.15 in 10.0 mi SSW 13.8 mph 21.9 mph 0.01 in Rain Light Rain
9:53 PM 55.9 °F 54.0 °F 93% 30.16 in 10.0 mi SSW 9.2 mph - 0.00 in   Mostly Cloudy
10:53 PM 55.0 °F 53.1 °F 93% 30.18 in 10.0 mi SSW 11.5 mph - N/A   Clear
11:53 PM 55.0 °F 53.1 °F 93% 30.18 in 10.0 mi SW 8.1 mph - N/A   Clear